QPF
0.00 0.01 0.02 0.03 0.03 0.01 0.00 0.00 0.00 0.00 0.00 0.00 0.00 0.00 0.00 0.00 0.00 0.00 0.00 0.00 0.00 0.00 0.00 0.00 0.01 0.01 0.01 0.01 0.01 0.01 0.01 0.01 0.01 0.02 0.03 0.04 0.02 0.02 0.02 0.01 0.01 0.02 0.02 0.02 0.03 0.02 0.02 0.01 0.01
0.01 0.02 0.03 0.04 0.02 0.01 0.00 0.00 0.00 0.00 0.00 0.00 0.00 0.00 0.00 0.00 0.00 0.00 0.00 0.00 0.00 0.00 0.00 0.00 0.01 0.01 0.01 0.01 0.01 0.02 0.02 0.01 0.02 0.03 0.04 0.05 0.03 0.02 0.02 0.01 0.01 0.02 0.02 0.02 0.02 0.02 0.01 0.00 0.00
0.02 0.03 0.04 0.03 0.01 0.00 0.00 0.00 0.00 0.00 0.00 0.00 0.00 0.00 0.00 0.00 0.00 0.00 0.00 0.00 0.00 0.00 0.00 0.00 0.01 0.01 0.02 0.02 0.02 0.02 0.02 0.02 0.02 0.02 0.03 0.03 0.03 0.02 0.02 0.02 0.01 0.02 0.01 0.01 0.01 0.01 0.00 0.00 0.00
0.02 0.04 0.04 0.03 0.01 0.00 0.00 0.00 0.00 0.00 0.00 0.00 0.00 0.00 0.00 0.00 0.00 0.00 0.00 0.00 0.00 0.00 0.00 0.00 0.01 0.01 0.02 0.02 0.02 0.03 0.02 0.02 0.02 0.03 0.03 0.03 0.03 0.02 0.02 0.02 0.01 0.01 0.01 0.01 0.01 0.00 0.00 0.00 0.00
0.03 0.05 0.05 0.03 0.01 0.00 0.00 0.00 0.00 0.00 0.00 0.00 0.00 0.00 0.00 0.00 0.00 0.00 0.00 0.00 0.00 0.00 0.00 0.01 0.01 0.02 0.03 0.03 0.03 0.04 0.04 0.03 0.03 0.03 0.04 0.04 0.03 0.03 0.02 0.01 0.01 0.01 0.01 0.01 0.01 0.00 0.00 0.00 0.00
0.04 0.06 0.05 0.03 0.01 0.00 0.00 0.00 0.00 0.00 0.00 0.00 0.00 0.00 0.00 0.00 0.00 0.00 0.00 0.00 0.00 0.00 0.00 0.01 0.02 0.03 0.04 0.04 0.04 0.05 0.05 0.05 0.05 0.04 0.05 0.05 0.04 0.03 0.02 0.01 0.01 0.01 0.01 0.01 0.01 0.00 0.00 0.00 0.00
0.04 0.06 0.05 0.03 0.01 0.00 0.00 0.00 0.00 0.00 0.00 0.00 0.00 0.00 0.00 0.00 0.00 0.00 0.00 0.00 0.00 0.00 0.01 0.02 0.03 0.04 0.05 0.06 0.06 0.06 0.06 0.06 0.06 0.06 0.06 0.05 0.04 0.04 0.02 0.01 0.01 0.01 0.01 0.01 0.01 0.01 0.00 0.00 0.00
0.04 0.06 0.05 0.03 0.02 0.01 0.00 0.00 0.00 0.00 0.00 0.00 0.00 0.00 0.00 0.00 0.00 0.00 0.00 0.00 0.00 0.01 0.02 0.03 0.04 0.06 0.06 0.07 0.08 0.08 0.08 0.08 0.07 0.07 0.07 0.05 0.05 0.05 0.03 0.01 0.01 0.01 0.01 0.01 0.01 0.01 0.00 0.00 0.00
0.04 0.07 0.06 0.02 0.01 0.01 0.01 0.01 0.01 0.00 0.00 0.00 0.00 0.00 0.00 0.00 0.00 0.00 0.00 0.00 0.01 0.02 0.03 0.05 0.08 0.09 0.09 0.10 0.10 0.11 0.11 0.12 0.11 0.10 0.08 0.06 0.06 0.05 0.03 0.01 0.01 0.01 0.01 0.01 0.01 0.01 0.00 0.00 0.00
0.06 0.07 0.04 0.02 0.02 0.02 0.01 0.02 0.02 0.01 0.01 0.01 0.00 0.00 0.00 0.00 0.00 0.00 0.00 0.00 0.01 0.02 0.04 0.07 0.10 0.13 0.14 0.14 0.14 0.17 0.17 0.15 0.13 0.09 0.06 0.07 0.06 0.04 0.03 0.02 0.01 0.01 0.01 0.01 0.01 0.00 0.00 0.00 0.00
0.05 0.05 0.03 0.02 0.02 0.02 0.02 0.02 0.02 0.02 0.02 0.01 0.01 0.01 0.00 0.00 0.00 0.01 0.00 0.01 0.01 0.02 0.03 0.07 0.12 0.16 0.18 0.18 0.17 0.18 0.18 0.15 0.13 0.09 0.06 0.06 0.06 0.04 0.03 0.02 0.02 0.01 0.01 0.01 0.01 0.00 0.00 0.00 0.00
0.03 0.03 0.03 0.03 0.03 0.03 0.03 0.03 0.03 0.02 0.02 0.01 0.01 0.02 0.01 0.01 0.01 0.01 0.01 0.01 0.02 0.03 0.05 0.09 0.15 0.19 0.20 0.20 0.19 0.18 0.16 0.14 0.11 0.09 0.07 0.06 0.05 0.03 0.02 0.01 0.01 0.01 0.01 0.01 0.00 0.00 0.00 0.00 0.00
0.03 0.02 0.01 0.02 0.04 0.05 0.04 0.03 0.03 0.02 0.01 0.01 0.01 0.01 0.02 0.01 0.01 0.01 0.01 0.01 0.02 0.04 0.07 0.12 0.17 0.21 0.22 0.22 0.21 0.21 0.17 0.13 0.10 0.09 0.09 0.06 0.03 0.02 0.01 0.01 0.01 0.00 0.00 0.00 0.00 0.00 0.00 0.00 0.00
0.02 0.01 0.01 0.02 0.03 0.04 0.04 0.03 0.02 0.02 0.01 0.02 0.02 0.02 0.01 0.01 0.01 0.02 0.01 0.02 0.02 0.04 0.07 0.14 0.18 0.21 0.24 0.24 0.22 0.21 0.19 0.16 0.15 0.11 0.08 0.07 0.03 0.02 0.01 0.01 0.00 0.00 0.00 0.00 0.00 0.00 0.00 0.00 0.00
0.01 0.01 0.01 0.01 0.02 0.03 0.05 0.04 0.01 0.01 0.01 0.02 0.02 0.02 0.01 0.02 0.01 0.02 0.02 0.01 0.02 0.04 0.08 0.12 0.17 0.22 0.26 0.27 0.26 0.24 0.22 0.19 0.16 0.14 0.09 0.08 0.05 0.02 0.01 0.01 0.00 0.00 0.00 0.00 0.00 0.00 0.00 0.00 0.00
0.01 0.02 0.02 0.01 0.01 0.03 0.07 0.06 0.01 0.01 0.02 0.02 0.02 0.02 0.02 0.02 0.02 0.02 0.02 0.03 0.02 0.03 0.07 0.11 0.16 0.22 0.26 0.30 0.30 0.26 0.25 0.24 0.20 0.15 0.13 0.09 0.05 0.03 0.02 0.01 0.00 0.00 0.00 0.00 0.00 0.00 0.00 0.00 0.00
0.02 0.03 0.03 0.02 0.02 0.03 0.06 0.04 0.01 0.01 0.02 0.03 0.03 0.03 0.02 0.02 0.02 0.02 0.02 0.03 0.03 0.04 0.07 0.11 0.14 0.21 0.27 0.34 0.33 0.29 0.25 0.27 0.24 0.18 0.14 0.12 0.07 0.04 0.02 0.01 0.00 0.00 0.00 0.00 0.00 0.00 0.00 0.00 0.00
0.03 0.03 0.02 0.02 0.01 0.02 0.03 0.02 0.02 0.02 0.02 0.02 0.03 0.03 0.03 0.03 0.02 0.02 0.02 0.03 0.03 0.04 0.07 0.11 0.15 0.22 0.28 0.37 0.41 0.36 0.30 0.28 0.26 0.21 0.15 0.11 0.08 0.05 0.03 0.01 0.01 0.00 0.00 0.00 0.00 0.00 0.00 0.00 0.00
0.02 0.02 0.02 0.01 0.01 0.02 0.02 0.02 0.03 0.02 0.02 0.02 0.03 0.03 0.04 0.03 0.03 0.03 0.03 0.03 0.04 0.04 0.08 0.13 0.16 0.21 0.28 0.34 0.45 0.38 0.32 0.28 0.26 0.23 0.19 0.15 0.10 0.06 0.03 0.02 0.01 0.00 0.00 0.00 0.00 0.00 0.00 0.00 0.00
0.02 0.02 0.02 0.01 0.01 0.03 0.03 0.03 0.02 0.02 0.02 0.03 0.04 0.04 0.04 0.02 0.03 0.03 0.04 0.05 0.07 0.06 0.08 0.13 0.18 0.21 0.25 0.29 0.36 0.41 0.31 0.29 0.26 0.23 0.21 0.17 0.13 0.09 0.04 0.02 0.01 0.00 0.00 0.00 0.00 0.00 0.00 0.00 0.00
0.01 0.02 0.02 0.01 0.01 0.02 0.03 0.03 0.01 0.01 0.02 0.03 0.04 0.05 0.04 0.03 0.04 0.04 0.04 0.05 0.07 0.07 0.08 0.12 0.18 0.20 0.23 0.28 0.32 0.43 0.42 0.35 0.30 0.26 0.22 0.18 0.14 0.11 0.07 0.03 0.01 0.01 0.00 0.00 0.00 0.00 0.00 0.00 0.00
0.02 0.02 0.02 0.01 0.02 0.02 0.03 0.03 0.02 0.02 0.02 0.03 0.04 0.04 0.04 0.04 0.04 0.03 0.03 0.05 0.06 0.06 0.07 0.12 0.18 0.21 0.22 0.27 0.29 0.35 0.42 0.35 0.27 0.21 0.21 0.20 0.15 0.13 0.10 0.06 0.03 0.01 0.00 0.00 0.00 0.00 0.00 0.00 0.00
0.01 0.01 0.01 0.01 0.02 0.02 0.01 0.03 0.02 0.02 0.03 0.03 0.03 0.04 0.03 0.04 0.04 0.04 0.03 0.04 0.05 0.06 0.08 0.13 0.20 0.23 0.23 0.24 0.27 0.30 0.36 0.37 0.30 0.24 0.21 0.21 0.18 0.15 0.11 0.07 0.05 0.02 0.01 0.00 0.00 0.00 0.00 0.00 0.00
0.00 0.00 0.01 0.01 0.02 0.03 0.01 0.02 0.04 0.04 0.05 0.05 0.04 0.04 0.04 0.04 0.04 0.04 0.04 0.03 0.04 0.08 0.09 0.16 0.23 0.24 0.23 0.22 0.24 0.25 0.28 0.39 0.38 0.31 0.26 0.21 0.19 0.17 0.13 0.07 0.05 0.03 0.01 0.00 0.00 0.00 0.00 0.00 0.00
0.00 0.01 0.03 0.03 0.03 0.03 0.01 0.02 0.06 0.04 0.03 0.05 0.06 0.05 0.04 0.03 0.04 0.04 0.03 0.03 0.05 0.08 0.09 0.16 0.25 0.23 0.21 0.21 0.22 0.22 0.23 0.31 0.39 0.34 0.28 0.24 0.18 0.16 0.14 0.09 0.04 0.03 0.02 0.01 0.00 0.00 0.00 0.00 0.00
0.00 0.02 0.04 0.04 0.04 0.03 0.02 0.04 0.06 0.03 0.01 0.02 0.03 0.04 0.03 0.03 0.03 0.04 0.04 0.03 0.04 0.06 0.09 0.14 0.26 0.23 0.19 0.19 0.20 0.20 0.24 0.25 0.32 0.34 0.29 0.25 0.19 0.14 0.12 0.10 0.06 0.03 0.02 0.01 0.00 0.00 0.00 0.00 0.00
0.00 0.01 0.01 0.03 0.02 0.03 0.03 0.05 0.04 0.01 0.01 0.01 0.01 0.02 0.03 0.03 0.03 0.03 0.04 0.04 0.03 0.04 0.06 0.11 0.25 0.26 0.18 0.17 0.19 0.17 0.22 0.24 0.26 0.29 0.27 0.24 0.22 0.18 0.14 0.11 0.07 0.05 0.03 0.02 0.01 0.00 0.00 0.00 0.00
0.00 0.00 0.01 0.03 0.04 0.04 0.04 0.04 0.04 0.02 0.01 0.01 0.02 0.02 0.02 0.02 0.02 0.02 0.04 0.04 0.04 0.04 0.05 0.09 0.19 0.28 0.21 0.17 0.19 0.18 0.18 0.21 0.23 0.26 0.26 0.23 0.23 0.21 0.18 0.15 0.11 0.06 0.04 0.02 0.01 0.00 0.00 0.00 0.00
0.00 0.00 0.01 0.02 0.03 0.04 0.04 0.04 0.02 0.02 0.02 0.02 0.02 0.02 0.02 0.02 0.02 0.03 0.04 0.04 0.03 0.03 0.04 0.09 0.15 0.24 0.25 0.20 0.19 0.20 0.18 0.18 0.18 0.19 0.21 0.24 0.24 0.23 0.23 0.19 0.14 0.10 0.06 0.04 0.02 0.01 0.00 0.00 0.00
0.00 0.00 0.01 0.02 0.02 0.02 0.04 0.04 0.01 0.01 0.01 0.02 0.02 0.02 0.02 0.02 0.02 0.02 0.04 0.04 0.04 0.03 0.04 0.07 0.14 0.20 0.22 0.22 0.21 0.19 0.20 0.18 0.16 0.15 0.14 0.16 0.23 0.24 0.23 0.23 0.20 0.14 0.09 0.06 0.03 0.01 0.00 0.00 0.00
MSLP
1012.89 1013.10 1013.28 1013.35 1013.21 1012.83 1012.21 1011.40 1010.50 1009.61 1008.85 1008.25 1007.84 1007.57 1007.37 1007.15 1006.85 1006.44 1005.92 1005.39 1004.91 1004.58 1004.47 1004.59 1004.93 1005.41 1005.93 1006.42 1006.81 1007.08 1007.26 1007.40 1007.57 1007.83 1008.21 1008.70 1009.28 1009.88 1010.45 1010.95 1011.36 1011.69 1011.97 1012.22 1012.48 1012.77 1013.09 1013.40 1013.70
1013.11 1013.23 1013.30 1013.21 1012.92 1012.39 1011.63 1010.72 1009.75 1008.83 1008.05 1007.46 1007.07 1006.83 1006.66 1006.48 1006.22 1005.86 1005.41 1004.95 1004.55 1004.31 1004.28 1004.47 1004.86 1005.37 1005.92 1006.40 1006.79 1007.05 1007.22 1007.35 1007.51 1007.76 1008.13 1008.61 1009.18 1009.78 1010.36 1010.88 1011.32 1011.68 1011.99 1012.28 1012.58 1012.89 1013.21 1013.53 1013.83
1013.27 1013.28 1013.21 1012.98 1012.55 1011.91 1011.08 1010.13 1009.15 1008.25 1007.51 1006.95 1006.59 1006.36 1006.19 1006.00 1005.73 1005.37 1004.94 1004.51 1004.16 1003.97 1003.99 1004.24 1004.67 1005.21 1005.78 1006.28 1006.67 1006.95 1007.12 1007.25 1007.41 1007.65 1008.00 1008.47 1009.02 1009.61 1010.19 1010.73 1011.20 1011.62 1011.99 1012.34 1012.68 1013.03 1013.37 1013.70 1013.98
1013.39 1013.30 1013.10 1012.76 1012.24 1011.54 1010.70 1009.77 1008.86 1008.03 1007.36 1006.87 1006.53 1006.29 1006.09 1005.85 1005.53 1005.12 1004.65 1004.21 1003.86 1003.68 1003.72 1003.98 1004.42 1004.97 1005.54 1006.05 1006.47 1006.76 1006.97 1007.12 1007.30 1007.54 1007.89 1008.33 1008.86 1009.44 1010.02 1010.58 1011.10 1011.58 1012.02 1012.44 1012.84 1013.23 1013.59 1013.90 1014.17
1013.51 1013.33 1013.06 1012.65 1012.10 1011.41 1010.62 1009.78 1008.98 1008.27 1007.70 1007.27 1006.95 1006.69 1006.43 1006.11 1005.70 1005.20 1004.67 1004.16 1003.77 1003.55 1003.55 1003.78 1004.18 1004.70 1005.24 1005.75 1006.18 1006.50 1006.75 1006.96 1007.18 1007.46 1007.81 1008.25 1008.77 1009.33 1009.92 1010.50 1011.06 1011.60 1012.12 1012.61 1013.08 1013.50 1013.86 1014.15 1014.38
1013.65 1013.42 1013.12 1012.71 1012.20 1011.58 1010.90 1010.20 1009.54 1008.96 1008.49 1008.12 1007.81 1007.52 1007.19 1006.78 1006.26 1005.66 1005.03 1004.44 1003.96 1003.66 1003.58 1003.71 1004.02 1004.44 1004.92 1005.39 1005.82 1006.17 1006.48 1006.76 1007.05 1007.39 1007.79 1008.26 1008.78 1009.34 1009.93 1010.53 1011.13 1011.72 1012.30 1012.84 1013.35 1013.79 1014.15 1014.42 1014.59
1013.80 1013.58 1013.31 1012.96 1012.54 1012.04 1011.50 1010.96 1010.44 1009.99 1009.62 1009.29 1008.99 1008.66 1008.25 1007.75 1007.13 1006.44 1005.71 1005.02 1004.44 1004.03 1003.81 1003.79 1003.96 1004.24 1004.61 1005.00 1005.39 1005.77 1006.14 1006.51 1006.90 1007.34 1007.81 1008.33 1008.88 1009.45 1010.04 1010.65 1011.27 1011.89 1012.50 1013.08 1013.62 1014.07 1014.41 1014.65 1014.77
1013.96 1013.79 1013.60 1013.35 1013.05 1012.69 1012.30 1011.90 1011.52 1011.17 1010.86 1010.56 1010.25 1009.87 1009.41 1008.83 1008.14 1007.37 1006.57 1005.80 1005.12 1004.58 1004.21 1004.02 1003.99 1004.10 1004.30 1004.58 1004.91 1005.29 1005.71 1006.18 1006.69 1007.24 1007.82 1008.41 1009.01 1009.61 1010.21 1010.81 1011.43 1012.05 1012.68 1013.27 1013.81 1014.26 1014.60 1014.80 1014.89
1014.12 1014.04 1013.94 1013.81 1013.62 1013.39 1013.12 1012.84 1012.55 1012.27 1011.99 1011.70 1011.37 1010.96 1010.45 1009.83 1009.10 1008.29 1007.45 1006.63 1005.87 1005.22 1004.70 1004.32 1004.08 1003.98 1004.00 1004.13 1004.38 1004.73 1005.19 1005.75 1006.38 1007.06 1007.76 1008.45 1009.12 1009.75 1010.36 1010.95 1011.55 1012.16 1012.77 1013.36 1013.89 1014.34 1014.66 1014.85 1014.93
1014.29 1014.29 1014.29 1014.26 1014.17 1014.02 1013.83 1013.60 1013.35 1013.10 1012.82 1012.52 1012.17 1011.74 1011.21 1010.57 1009.84 1009.03 1008.19 1007.35 1006.54 1005.80 1005.15 1004.60 1004.16 1003.85 1003.67 1003.65 1003.78 1004.09 1004.57 1005.19 1005.93 1006.74 1007.56 1008.36 1009.11 1009.79 1010.41 1011.00 1011.58 1012.16 1012.74 1013.31 1013.83 1014.27 1014.61 1014.81 1014.90
1014.50 1014.57 1014.64 1014.66 1014.61 1014.49 1014.30 1014.07 1013.82 1013.54 1013.25 1012.93 1012.56 1012.11 1011.58 1010.96 1010.25 1009.47 1008.65 1007.82 1006.99 1006.20 1005.45 1004.76 1004.16 1003.67 1003.32 1003.13 1003.15 1003.39 1003.86 1004.52 1005.34 1006.25 1007.19 1008.10 1008.93 1009.68 1010.33 1010.93 1011.49 1012.04 1012.59 1013.14 1013.65 1014.10 1014.46 1014.69 1014.82
1014.80 1014.91 1014.99 1015.00 1014.92 1014.75 1014.51 1014.23 1013.92 1013.60 1013.27 1012.93 1012.54 1012.10 1011.58 1010.98 1010.30 1009.55 1008.76 1007.95 1007.12 1006.31 1005.51 1004.74 1004.03 1003.40 1002.91 1002.60 1002.50 1002.67 1003.09 1003.76 1004.62 1005.61 1006.64 1007.65 1008.57 1009.39 1010.10 1010.72 1011.28 1011.82 1012.36 1012.89 1013.40 1013.87 1014.26 1014.55 1014.74
1015.22 1015.33 1015.37 1015.30 1015.12 1014.84 1014.49 1014.10 1013.71 1013.33 1012.97 1012.61 1012.23 1011.79 1011.29 1010.69 1010.02 1009.29 1008.51 1007.70 1006.88 1006.06 1005.26 1004.46 1003.71 1003.02 1002.45 1002.04 1001.86 1001.95 1002.31 1002.94 1003.81 1004.83 1005.93 1007.02 1008.04 1008.95 1009.73 1010.40 1011.00 1011.55 1012.08 1012.61 1013.14 1013.63 1014.06 1014.41 1014.67
1015.81 1015.87 1015.81 1015.61 1015.27 1014.82 1014.32 1013.81 1013.32 1012.89 1012.51 1012.15 1011.78 1011.34 1010.83 1010.22 1009.52 1008.74 1007.93 1007.09 1006.26 1005.46 1004.67 1003.90 1003.17 1002.50 1001.92 1001.48 1001.25 1001.26 1001.56 1002.13 1002.96 1003.98 1005.10 1006.26 1007.36 1008.37 1009.25 1010.00 1010.66 1011.26 1011.82 1012.37 1012.91 1013.42 1013.90 1014.31 1014.65
1016.54 1016.52 1016.32 1015.94 1015.40 1014.76 1014.09 1013.45 1012.89 1012.43 1012.05 1011.71 1011.35 1010.92 1010.37 1009.70 1008.91 1008.03 1007.12 1006.20 1005.33 1004.52 1003.77 1003.07 1002.43 1001.84 1001.32 1000.92 1000.67 1000.64 1000.86 1001.35 1002.11 1003.09 1004.21 1005.40 1006.58 1007.69 1008.68 1009.55 1010.30 1010.97 1011.58 1012.16 1012.73 1013.27 1013.79 1014.25 1014.64
1017.33 1017.20 1016.85 1016.27 1015.54 1014.71 1013.88 1013.14 1012.52 1012.06 1011.70 1011.40 1011.06 1010.62 1010.02 1009.24 1008.30 1007.26 1006.18 1005.13 1004.17 1003.33 1002.61 1002.01 1001.50 1001.04 1000.65 1000.32 1000.11 1000.06 1000.22 1000.63 1001.29 1002.20 1003.28 1004.49 1005.73 1006.93 1008.05 1009.05 1009.92 1010.68 1011.37 1012.00 1012.59 1013.16 1013.70 1014.19 1014.63
1018.08 1017.84 1017.33 1016.58 1015.65 1014.66 1013.71 1012.89 1012.26 1011.82 1011.52 1011.26 1010.95 1010.49 1009.81 1008.90 1007.77 1006.51 1005.21 1003.98 1002.89 1001.99 1001.30 1000.79 1000.42 1000.14 999.90 999.70 999.56 999.51 999.62 999.94 1000.51 1001.32 1002.35 1003.54 1004.83 1006.12 1007.36 1008.49 1009.50 1010.37 1011.14 1011.83 1012.45 1013.04 1013.59 1014.10 1014.57
1018.68 1018.34 1017.69 1016.79 1015.72 1014.61 1013.58 1012.73 1012.11 1011.71 1011.47 1011.28 1010.99 1010.51 1009.75 1008.68 1007.35 1005.85 1004.31 1002.86 1001.61 1000.63 999.94 999.51 999.28 999.16 999.10 999.04 998.98 998.97 999.04 999.28 999.74 1000.46 1001.42 1002.58 1003.89 1005.26 1006.62 1007.88 1009.02 1010.01 1010.86 1011.60 1012.26 1012.86 1013.42 1013.94 1014.42
1019.04 1018.62 1017.87 1016.87 1015.71 1014.53 1013.47 1012.61 1012.02 1011.69 1011.52 1011.37 1011.12 1010.62 1009.77 1008.57 1007.05 1005.33 1003.55 1001.89 1000.48 999.39 998.68 998.29 998.17 998.19 998.28 998.35 998.39 998.40 998.46 998.63 999.00 999.62 1000.51 1001.64 1002.95 1004.38 1005.82 1007.20 1008.46 1009.56 1010.50 1011.30 1011.98 1012.60 1013.16 1013.69 1014.18
1019.13 1018.66 1017.87 1016.82 1015.63 1014.44 1013.38 1012.54 1011.99 1011.70 1011.58 1011.48 1011.24 1010.73 1009.83 1008.53 1006.87 1004.97 1003.01 1001.17 999.60 998.42 997.65 997.27 997.20 997.32 997.51 997.68 997.79 997.84 997.88 998.01 998.30 998.83 999.65 1000.74 1002.05 1003.51 1005.02 1006.48 1007.83 1009.02 1010.03 1010.88 1011.61 1012.23 1012.80 1013.34 1013.85
1019.01 1018.52 1017.74 1016.71 1015.55 1014.38 1013.34 1012.53 1011.99 1011.73 1011.62 1011.53 1011.31 1010.79 1009.87 1008.53 1006.80 1004.81 1002.75 1000.79 999.11 997.83 996.99 996.57 996.50 996.65 996.88 997.09 997.23 997.30 997.33 997.42 997.66 998.13 998.89 999.93 1001.23 1002.70 1004.24 1005.77 1007.18 1008.43 1009.50 1010.39 1011.14 1011.79 1012.37 1012.91 1013.45
1018.80 1018.34 1017.60 1016.64 1015.55 1014.44 1013.43 1012.62 1012.08 1011.78 1011.64 1011.53 1011.29 1010.77 1009.87 1008.55 1006.84 1004.86 1002.79 1000.80 999.06 997.71 996.79 996.30 996.16 996.25 996.45 996.64 996.77 996.82 996.84 996.90 997.11 997.55 998.27 999.28 1000.55 1002.01 1003.57 1005.11 1006.55 1007.84 1008.94 1009.86 1010.63 1011.29 1011.89 1012.46 1013.01
1018.64 1018.24 1017.61 1016.75 1015.75 1014.71 1013.72 1012.90 1012.30 1011.92 1011.69 1011.51 1011.22 1010.70 1009.84 1008.60 1006.99 1005.11 1003.12 1001.19 999.46 998.07 997.07 996.47 996.22 996.18 996.27 996.37 996.44 996.45 996.45 996.50 996.70 997.12 997.82 998.82 1000.06 1001.50 1003.04 1004.57 1006.01 1007.30 1008.41 1009.34 1010.12 1010.80 1011.41 1012.00 1012.59
1018.68 1018.37 1017.85 1017.13 1016.24 1015.26 1014.28 1013.41 1012.70 1012.19 1011.82 1011.51 1011.15 1010.62 1009.81 1008.68 1007.24 1005.54 1003.71 1001.90 1000.24 998.85 997.78 997.05 996.63 996.42 996.34 996.30 996.26 996.20 996.16 996.21 996.41 996.85 997.55 998.54 999.77 1001.18 1002.68 1004.17 1005.58 1006.84 1007.94 1008.86 1009.65 1010.34 1010.97 1011.58 1012.19
1018.98 1018.77 1018.39 1017.80 1017.01 1016.09 1015.11 1014.15 1013.31 1012.61 1012.05 1011.58 1011.11 1010.54 1009.79 1008.79 1007.54 1006.07 1004.46 1002.82 1001.28 999.91 998.79 997.93 997.32 996.90 996.61 996.38 996.20 996.05 995.97 996.01 996.24 996.70 997.43 998.42 999.64 1001.01 1002.47 1003.91 1005.27 1006.48 1007.54 1008.45 1009.23 1009.92 1010.57 1011.19 1011.82
1019.53 1019.43 1019.17 1018.70 1018.01 1017.13 1016.12 1015.07 1014.06 1013.16 1012.39 1011.73 1011.12 1010.50 1009.78 1008.91 1007.86 1006.62 1005.25 1003.82 1002.41 1001.10 999.94 998.96 998.16 997.51 996.99 996.56 996.21 995.96 995.83 995.87 996.12 996.62 997.38 998.39 999.60 1000.95 1002.35 1003.74 1005.03 1006.19 1007.21 1008.09 1008.86 1009.55 1010.21 1010.84 1011.48
1020.24 1020.22 1020.06 1019.69 1019.07 1018.22 1017.18 1016.04 1014.88 1013.78 1012.79 1011.93 1011.18 1010.48 1009.78 1009.01 1008.12 1007.11 1005.97 1004.75 1003.48 1002.24 1001.06 999.97 998.99 998.13 997.39 996.76 996.25 995.88 995.69 995.72 996.00 996.54 997.34 998.37 999.58 1000.91 1002.27 1003.59 1004.82 1005.93 1006.90 1007.75 1008.50 1009.20 1009.85 1010.50 1011.14
1020.96 1020.99 1020.89 1020.58 1020.00 1019.17 1018.11 1016.89 1015.61 1014.35 1013.18 1012.15 1011.26 1010.48 1009.76 1009.06 1008.30 1007.47 1006.52 1005.48 1004.36 1003.19 1002.00 1000.83 999.72 998.68 997.73 996.92 996.25 995.78 995.53 995.54 995.84 996.41 997.24 998.29 999.51 1000.81 1002.13 1003.40 1004.58 1005.64 1006.57 1007.40 1008.14 1008.83 1009.50 1010.15 1010.80
1021.51 1021.54 1021.45 1021.15 1020.60 1019.78 1018.72 1017.47 1016.12 1014.77 1013.49 1012.33 1011.33 1010.48 1009.73 1009.05 1008.38 1007.66 1006.86 1005.96 1004.96 1003.86 1002.69 1001.48 1000.27 999.09 998.00 997.03 996.24 995.66 995.35 995.33 995.62 996.21 997.06 998.12 999.33 1000.61 1001.90 1003.14 1004.27 1005.30 1006.20 1007.01 1007.75 1008.45 1009.12 1009.78 1010.44
1021.77 1021.74 1021.61 1021.29 1020.73 1019.93 1018.89 1017.67 1016.33 1014.96 1013.65 1012.44 1011.38 1010.48 1009.70 1009.02 1008.38 1007.73 1007.02 1006.22 1005.31 1004.28 1003.14 1001.92 1000.66 999.41 998.21 997.14 996.24 995.58 995.20 995.14 995.41 995.98 996.82 997.87 999.07 1000.33 1001.60 1002.80 1003.91 1004.91 1005.80 1006.60 1007.34 1008.04 1008.73 1009.41 1010.08
Thickness
5701 5705 5708 5700 5687 5685 5695 5719 5735 5742 5751 5763 5767 5765 5760 5758 5756 5751 5776 5794 5798 5797 5795 5788 5786 5784 5783 5782 5782 5780 5779 5777 5775 5773 5772 5770 5768 5766 5764 5762 5760 5758 5756 5754 5751 5749 5747 5744 5742
5694 5699 5695 5686 5676 5678 5700 5721 5727 5737 5749 5758 5759 5757 5754 5758 5770 5770 5775 5786 5791 5792 5789 5784 5781 5780 5778 5777 5776 5775 5774 5773 5772 5770 5768 5766 5764 5762 5761 5759 5757 5755 5753 5750 5748 5745 5743 5741 5739
5688 5690 5680 5676 5677 5686 5704 5725 5731 5740 5746 5746 5745 5749 5749 5753 5764 5766 5771 5780 5784 5784 5783 5779 5776 5774 5773 5772 5771 5770 5769 5768 5767 5766 5764 5762 5760 5759 5757 5755 5753 5751 5749 5747 5744 5742 5739 5737 5735
5679 5674 5670 5668 5678 5697 5705 5715 5723 5726 5732 5736 5735 5734 5746 5757 5760 5762 5767 5771 5773 5775 5776 5773 5770 5768 5768 5767 5766 5766 5765 5764 5763 5761 5760 5758 5756 5754 5753 5751 5749 5747 5745 5743 5740 5738 5736 5734 5732
5667 5659 5655 5660 5675 5690 5700 5709 5713 5711 5715 5721 5722 5719 5728 5746 5754 5757 5758 5761 5762 5765 5768 5766 5764 5763 5762 5761 5761 5761 5760 5759 5758 5757 5756 5754 5752 5750 5748 5747 5745 5743 5741 5739 5736 5734 5732 5730 5728
5649 5648 5644 5654 5670 5683 5692 5699 5699 5698 5702 5708 5708 5707 5717 5733 5737 5741 5747 5750 5754 5756 5758 5758 5757 5757 5756 5755 5755 5756 5755 5754 5753 5752 5751 5749 5747 5746 5744 5742 5740 5739 5737 5735 5733 5730 5728 5726 5725
5633 5632 5636 5647 5655 5664 5675 5684 5682 5681 5683 5689 5693 5691 5704 5715 5720 5726 5732 5738 5742 5746 5748 5749 5749 5749 5749 5749 5749 5749 5749 5749 5748 5746 5745 5744 5742 5741 5739 5737 5735 5734 5732 5730 5729 5726 5724 5723 5721
5625 5619 5625 5632 5638 5648 5659 5662 5666 5665 5667 5677 5679 5674 5681 5695 5703 5709 5715 5722 5728 5732 5736 5738 5740 5742 5742 5743 5743 5743 5743 5742 5742 5741 5739 5738 5736 5735 5733 5732 5730 5729 5727 5726 5724 5722 5720 5718 5717
5612 5600 5608 5619 5622 5631 5639 5638 5645 5651 5653 5658 5663 5665 5671 5679 5685 5689 5694 5702 5709 5716 5722 5727 5729 5732 5735 5736 5736 5736 5736 5735 5735 5734 5732 5731 5729 5728 5728 5727 5725 5724 5722 5720 5719 5717 5715 5714 5712
5596 5589 5602 5611 5610 5611 5615 5614 5619 5625 5630 5635 5642 5650 5657 5660 5663 5665 5673 5681 5690 5698 5706 5714 5718 5721 5725 5728 5729 5729 5729 5728 5728 5727 5726 5726 5724 5723 5723 5721 5720 5719 5717 5715 5714 5712 5711 5709 5708
5588 5585 5592 5594 5594 5593 5594 5597 5599 5601 5607 5615 5620 5628 5634 5639 5644 5648 5655 5664 5674 5683 5692 5700 5706 5710 5714 5718 5721 5722 5722 5722 5722 5722 5722 5721 5719 5718 5717 5715 5714 5713 5712 5710 5709 5707 5707 5706 5704
5575 5577 5578 5578 5578 5575 5576 5579 5581 5585 5594 5601 5606 5609 5615 5620 5627 5633 5639 5648 5658 5668 5679 5688 5694 5699 5704 5708 5712 5714 5716 5716 5717 5717 5718 5717 5716 5714 5712 5711 5710 5709 5708 5706 5704 5703 5703 5702 5701
5561 5563 5565 5564 5563 5562 5563 5565 5566 5575 5584 5587 5591 5595 5599 5604 5611 5619 5627 5634 5643 5653 5664 5675 5681 5687 5693 5697 5702 5706 5709 5711 5713 5713 5713 5714 5712 5710 5708 5707 5705 5705 5704 5702 5701 5701 5700 5699 5698
5551 5550 5550 5551 5551 5551 5550 5556 5556 5568 5571 5573 5576 5580 5584 5589 5596 5603 5611 5617 5627 5638 5649 5660 5668 5675 5682 5686 5692 5698 5702 5705 5707 5708 5709 5709 5708 5707 5704 5703 5701 5701 5700 5699 5698 5697 5696 5695 5694
5539 5535 5538 5544 5546 5545 5540 5543 5550 5558 5560 5560 5563 5565 5570 5576 5583 5589 5596 5604 5613 5624 5635 5645 5654 5663 5670 5677 5683 5690 5695 5699 5701 5703 5704 5705 5704 5702 5701 5699 5697 5697 5696 5695 5693 5693 5692 5690 5689
5528 5524 5523 5539 5539 5535 5523 5527 5544 5549 5547 5548 5551 5554 5558 5565 5571 5579 5586 5594 5602 5611 5620 5631 5641 5650 5658 5667 5674 5681 5687 5691 5695 5697 5699 5700 5699 5698 5696 5695 5693 5692 5691 5690 5689 5688 5686 5684 5683
5517 5508 5512 5524 5529 5524 5515 5518 5535 5539 5537 5537 5539 5542 5547 5554 5561 5568 5576 5583 5590 5599 5608 5617 5627 5638 5647 5656 5665 5673 5679 5684 5689 5690 5692 5694 5695 5693 5692 5691 5689 5688 5686 5685 5684 5683 5681 5678 5677
5499 5498 5502 5506 5516 5513 5509 5513 5524 5529 5528 5527 5528 5532 5536 5542 5550 5558 5565 5572 5579 5587 5596 5604 5615 5627 5637 5645 5654 5662 5670 5676 5681 5684 5686 5689 5689 5689 5687 5686 5684 5683 5681 5679 5679 5677 5676 5674 5672
5496 5490 5490 5501 5509 5502 5501 5507 5515 5521 5519 5519 5519 5522 5526 5532 5543 5550 5556 5561 5566 5575 5583 5592 5602 5615 5626 5634 5643 5652 5661 5668 5673 5678 5682 5684 5685 5685 5685 5683 5681 5679 5677 5676 5674 5672 5670 5668 5667
5490 5482 5484 5498 5502 5495 5494 5503 5511 5516 5515 5514 5513 5515 5517 5524 5532 5539 5545 5550 5556 5564 5572 5582 5593 5606 5618 5628 5637 5647 5654 5661 5667 5672 5675 5677 5678 5680 5681 5679 5678 5675 5673 5670 5670 5668 5665 5664 5663
5484 5478 5479 5481 5488 5492 5487 5497 5510 5515 5514 5512 5509 5509 5512 5516 5521 5529 5536 5540 5548 5555 5563 5573 5586 5599 5610 5621 5630 5638 5644 5651 5656 5662 5667 5670 5673 5675 5676 5675 5674 5671 5670 5667 5666 5665 5664 5660 5659
5474 5484 5480 5476 5465 5466 5478 5468 5498 5503 5505 5504 5502 5502 5503 5506 5512 5519 5526 5531 5539 5546 5555 5566 5578 5591 5602 5612 5622 5632 5640 5646 5653 5657 5662 5664 5667 5670 5671 5671 5669 5667 5666 5664 5663 5662 5661 5658 5655
5476 5480 5476 5473 5464 5460 5472 5461 5484 5494 5492 5492 5491 5492 5494 5497 5503 5511 5517 5523 5531 5538 5548 5559 5571 5583 5595 5605 5615 5627 5635 5641 5646 5650 5654 5657 5659 5663 5665 5665 5663 5662 5662 5661 5659 5658 5657 5655 5653
5476 5471 5472 5476 5465 5450 5473 5466 5472 5477 5477 5481 5483 5484 5486 5490 5496 5504 5509 5515 5522 5530 5540 5551 5563 5576 5587 5597 5608 5620 5628 5634 5638 5644 5646 5650 5653 5657 5659 5660 5659 5658 5659 5658 5656 5655 5653 5652 5650
5462 5443 5435 5437 5443 5455 5484 5472 5465 5473 5475 5476 5475 5476 5479 5482 5486 5493 5500 5505 5513 5522 5530 5542 5555 5568 5579 5590 5600 5612 5621 5627 5633 5639 5642 5644 5648 5652 5655 5656 5656 5655 5655 5654 5653 5652 5650 5649 5647
5449 5440 5418 5410 5427 5451 5470 5465 5465 5472 5473 5472 5471 5470 5472 5475 5479 5483 5490 5496 5504 5513 5522 5533 5546 5558 5570 5582 5592 5604 5612 5621 5628 5634 5639 5641 5645 5650 5651 5652 5652 5652 5651 5650 5649 5648 5647 5646 5644
5443 5437 5437 5417 5418 5425 5450 5462 5468 5471 5467 5464 5462 5461 5462 5466 5471 5475 5481 5488 5496 5505 5514 5525 5537 5549 5561 5573 5585 5596 5605 5615 5623 5629 5634 5637 5641 5644 5647 5648 5648 5647 5647 5646 5645 5645 5643 5642 5641
5444 5437 5421 5407 5403 5414 5437 5446 5446 5451 5452 5454 5452 5450 5453 5456 5462 5468 5473 5480 5488 5497 5507 5519 5531 5542 5555 5567 5579 5589 5598 5608 5616 5622 5629 5633 5637 5641 5643 5644 5644 5643 5643 5642 5641 5641 5640 5638 5637
5432 5424 5415 5407 5407 5401 5411 5432 5449 5443 5444 5442 5442 5443 5445 5448 5452 5459 5465 5473 5481 5489 5500 5510 5524 5535 5547 5559 5571 5580 5589 5598 5607 5615 5623 5628 5633 5637 5639 5640 5640 5639 5639 5639 5637 5637 5636 5635 5633
5431 5421 5409 5390 5391 5399 5398 5422 5449 5441 5440 5438 5436 5438 5440 5443 5446 5451 5458 5465 5473 5481 5491 5503 5515 5527 5539 5551 5562 5571 5581 5589 5600 5609 5616 5623 5628 5633 5636 5637 5636 5636 5635 5635 5635 5634 5633 5632 5631